Weather History for Tucumcari, NM

Change the Weather History Date:

Wednesday, June 18, 2014

  Actual Average Record
Temperature  
Mean Temperature 82 °F -  
Max Temperature 95 °F 92 °F 106 °F (2012)
Min Temperature 68 °F 60 °F 45 °F (1912)
Cooling Degree Days 16    
Growing Degree Days 32 (Base 50)    
Moisture  
Dew Point 52 °F    
Average Humidity 45    
Maximum Humidity 76    
Minimum Humidity 14    
Precipitation  
Precipitation 0.04 in - - ()
Sea Level Pressure  
Sea Level Pressure 29.74 in    
Wind  
Wind Speed 19 mph (SW)    
Max Wind Speed 32 mph    
Max Gust Speed 40 mph    
Visibility 9 miles    
Events Rain , Thunderstorm    
Averages and records for this station are not official NWS values.
T = Trace of Precipitation, MM = Missing Value Source: NWS Daily Summary

Daily Weather History Graph

Daily Weather History Graph

Search for Another Location

Airport:

Trip Planner

Search our weather history database for the weather conditions in past years. The results will help you decide how hot, cold, wet, or windy it might be!

Date:

Astronomy

Jun. 18, 2014 Rise Set
Actual Time 5:39 AM MDT 8:11 PM MDT
Civil Twilight 5:09 AM MDT 8:41 PM MDT
Nautical Twilight 4:33 AM MDT 9:18 PM MDT
Astronomical Twilight 3:52 AM MDT 9:59 PM MDT
Moon No Moon Rise 11:52 AM MDT (6/18)
Length of Visible Light 15h 31m
Length of Day
14h 31m
Waning Gibbous, 62% of the Moon is Illuminated
Jun 18
Waning Gibbous
Jun 19
Last Quarter
Jun 27
New
Jul 5
First Quarter
Jul 12
Full

Hourly Weather History & Observations

Time (MDT) Temp. Heat Index Dew Point Humidity Pressure Visibility Wind Dir Wind Speed Gust Speed Precip Events Conditions
12:53 AM 75.0 °F - 55.0 °F 50% 29.68 in 8.0 mi South 24.2 mph 31.1 mph N/A   Clear
1:14 AM 75.0 °F - 57.0 °F 53% 29.90 in 4.0 mi South 32.2 mph 36.8 mph N/A   Haze
1:53 AM 73.0 °F - 57.0 °F 57% 29.70 in 10.0 mi South 19.6 mph 25.3 mph N/A   Clear
2:53 AM 71.1 °F - 57.0 °F 61% 29.73 in 10.0 mi South 18.4 mph 27.6 mph N/A   Clear
3:53 AM 70.0 °F - 55.9 °F 61% 29.73 in 10.0 mi South 17.3 mph 26.5 mph N/A   Clear
4:53 AM 70.0 °F - 60.1 °F 71% 29.73 in 10.0 mi SSW 12.7 mph - N/A   Clear
5:53 AM 68.0 °F - 60.1 °F 76% 29.74 in 10.0 mi SSW 13.8 mph 20.7 mph N/A   Clear
6:53 AM 71.1 °F - 61.0 °F 70% 29.75 in 10.0 mi WSW 15.0 mph - N/A   Clear
7:53 AM 75.0 °F - 62.1 °F 64% 29.74 in 10.0 mi SW 20.7 mph - N/A   Clear
8:53 AM 80.1 °F 81.2 °F 62.1 °F 54% 29.75 in 10.0 mi SW 13.8 mph - N/A   Clear
9:53 AM 84.9 °F - 48.0 °F 28% 29.74 in 10.0 mi West 17.3 mph - N/A   Clear
10:53 AM 88.0 °F - 46.9 °F 24% 29.73 in 10.0 mi West 18.4 mph 25.3 mph N/A   Clear
11:53 AM 88.0 °F - 44.1 °F 22% 29.71 in 10.0 mi WSW 18.4 mph - N/A   Clear
12:53 PM 93.0 °F - 43.0 °F 18% 29.68 in 10.0 mi WSW 25.3 mph 31.1 mph N/A   Clear
1:53 PM 93.9 °F - 43.0 °F 17% 29.66 in 10.0 mi WSW 24.2 mph 32.2 mph N/A   Clear
2:53 PM 93.9 °F - 42.1 °F 17% 29.63 in 10.0 mi SW 19.6 mph 28.8 mph N/A   Clear
3:53 PM 95.0 °F - 39.0 °F 14% 29.62 in 10.0 mi WSW 21.9 mph - N/A   Clear
4:53 PM 90.0 °F - 39.9 °F 17% 29.62 in 10.0 mi West 19.6 mph - N/A   Clear
5:53 PM 88.0 °F - 42.1 °F 20% 29.62 in 10.0 mi WNW 9.2 mph - N/A   Partly Cloudy
6:16 PM 86.0 °F 84.0 °F 53.1 °F 32% 29.83 in 6.0 mi Calm Calm - 0.01 in Rain , Thunderstorm Rain
6:43 PM 82.0 °F - 50.0 °F 33% 29.84 in 6.0 mi SSW 28.8 mph 39.1 mph 0.01 in   Haze
6:53 PM 82.0 °F - 48.0 °F 30% 29.65 in 10.0 mi SW 20.7 mph 29.9 mph 0.01 in Rain Light Rain
7:13 PM 82.9 °F - 48.0 °F 29% 29.85 in 10.0 mi WSW 9.2 mph 26.5 mph 0.00 in Thunderstorm Scattered Clouds
7:53 PM 78.1 °F - 52.0 °F 40% 29.67 in 10.0 mi SSE 11.5 mph - 0.00 in   Clear
8:53 PM 75.9 °F - 57.9 °F 54% 29.74 in 9.0 mi SW 32.2 mph 40.3 mph 0.01 in Rain , Thunderstorm Light Thunderstorms and Rain
9:27 PM 70.0 °F - 55.9 °F 61% 29.92 in 10.0 mi NE 4.6 mph - 0.02 in Rain , Thunderstorm Light Rain
9:53 PM 70.0 °F - 57.9 °F 65% 29.74 in 10.0 mi South 17.3 mph - 0.02 in Rain , Thunderstorm Light Rain
10:23 PM 68.0 °F - 55.0 °F 63% 29.92 in 10.0 mi South 15.0 mph - 0.00 in   Clear
10:53 PM 68.0 °F - 57.9 °F 70% 29.74 in 10.0 mi SSE 10.4 mph - 0.00 in   Clear
11:53 PM 69.1 °F - 60.1 °F 73% 29.74 in 10.0 mi WSW 4.6 mph - N/A   Clear